[[{"header":{"parameterUnit":"m.s-1","parameterCategory":1,"la1":30.2991,"la2":30.254,"lo1":-89.0895,"lo2":-89.0444,"dy":0.0017,"dx":0.0017,"nx":28,"ny":28,"refTime":"2024-10-19T03:00:00:Z","depth":0,"parameterNumber":2,"parameterNumberName":"U-component_of_WINDS"},"data":[0,0,0,0,0,0,0,0,0,0,0,0,0,0,0,0,0,0,0,0,0,0,0,0,0,0,0,0,0,0,0,0,0,0,0,0,0,0,0,0,0,0,0,0,0,0,0,0,0,0,0,0,0,0,0,0,0,0,-6.3306,-6.3306,0,-6.3313,-6.3313,-6.3313,-6.3151,-6.3146,-6.3142,-6.3138,-6.3147,-6.3151,-6.3155,0,0,0,0,0,0,0,0,0,0,0,0,0,-6.3155,-6.3158,-6.3306,-6.3306,-6.3306,-6.3313,-6.3313,-6.3313,-6.3151,-6.3146,-6.3141,-6.3136,-6.3146,-6.3151,-6.3156,0,0,0,0,0,0,0,0,0,0,0,0,0,-6.3197,-6.3159,-6.3306,-6.3226,-6.3219,-6.3313,-6.3313,-6.3313,-6.3153,-6.3146,-6.3139,-6.3133,-6.3144,-6.315,-6.3157,-6.3328,0,0,-6.3176,-6.3179,0,0,0,0,0,0,0,0,-6.3195,-6.3203,-6.3238,-6.3232,-6.3224,-6.3224,-6.3263,-6.3318,-6.3154,-6.3178,-6.3138,-6.313,-6.3178,-6.3181,-6.3197,-6.3328,-6.3329,-6.3177,-6.3181,-6.3184,-6.3185,0,0,0,0,0,0,0,-6.3192,-6.3202,-6.3309,-6.3239,-6.323,-6.3191,-6.319,-6.3273,-6.3215,-6.3175,-6.3164,-6.3167,-6.3173,-6.3191,-6.3196,-6.3329,-6.3177,-6.3182,-6.3186,-6.3189,-6.3602,-6.3609,0,0,0,0,0,0,-6.32,-6.32,-6.3309,-6.3309,-6.3193,-6.3199,-6.3198,-6.3231,-6.3213,-6.3204,-6.3172,-6.3159,-6.3183,-6.3189,-6.3196,-6.3396,-6.3184,-6.319,-6.3193,-6.3595,-6.3603,-6.3611,0,0,0,0,0,0,-6.3197,-6.3211,-6.3308,-6.3252,-6.3261,-6.3209,-6.3247,-6.3235,-6.3252,-6.3211,-6.32,-6.3201,-6.3179,-6.3187,-6.3296,-6.3394,-6.3193,-6.3198,-6.3587,-6.3598,-6.3607,-6.3798,0,0,0,0,0,0,-6.3194,-6.3211,-6.3275,-6.3254,-6.3265,-6.3409,-6.3253,-6.3239,-6.3264,-6.3247,-6.3235,-6.3227,-6.3174,-6.3288,-6.3303,-6.3399,-6.3203,-6.3578,-6.3591,-6.3604,-6.3783,-6.3814,-6.384,0,0,0,0,0,-6.3189,-6.3328,-6.3279,-6.3293,-6.3343,-6.3415,-6.3421,-6.3356,-6.3272,-6.3337,-6.331,-6.3228,-6.3381,-6.33,-6.3316,-6.3416,-6.3571,-6.3588,-6.3603,-6.377,-6.3807,-6.3839,0,0,0,0,0,0,-6.3362,-6.3324,-6.3269,-6.3406,-6.3415,-6.3387,-6.3466,-6.3398,-6.3431,-6.3414,-6.3332,-6.3331,-6.3455,-6.3446,-6.3357,-6.3581,-6.3461,-6.3481,-6.3583,-6.3618,-6.3647,-6.3646,-6.3209,0,0,0,0,0,-6.3417,-6.3477,-6.344,-6.3565,-6.3572,-6.3519,-6.3548,-6.3497,-6.3503,-6.3506,-6.3487,-6.3497,-6.3547,-6.3582,-6.3626,-6.378,-6.3776,-6.3857,-6.3886,-6.391,-6.3928,-6.4011,-6.4046,-6.3664,-6.3663,-6.3663,0,0,-6.3529,-6.3516,-6.3559,-6.36,-6.36,-6.3666,-6.3523,-6.3598,-6.3646,-6.3517,-6.362,-6.3607,-6.3612,-6.3746,-6.3803,-6.3742,-6.4033,-6.393,-6.3949,-6.3955,-6.4031,-6.4067,-6.4099,-6.3674,-6.3672,-6.3671,0,0,-6.3768,-6.3764,-6.3867,-6.3871,-6.3874,-6.3838,-6.3864,-6.3846,-6.3833,-6.3934,-6.384,-6.3896,-6.3984,-6.3992,-6.4008,-6.4252,-6.4177,-6.4268,-6.4419,-6.45,-6.4531,-6.4557,-6.4645,-6.4678,-6.4286,-6.4287,-6.4287,0,-6.3908,-6.4002,-6.3929,-6.4011,-6.4032,-6.3919,-6.4024,-6.4031,-6.4049,-6.4067,-6.3998,-6.4107,-6.4103,-6.4237,-6.4297,-6.4313,-6.434,-6.4269,-6.4532,-6.4558,-6.4581,-6.4664,-6.4698,-6.4298,-6.4297,-6.4296,-6.4294,0,-6.4174,-6.4241,-6.4325,-6.4345,-6.4375,-6.4468,-6.4411,-6.4451,-6.4398,-6.437,-6.4476,-6.4466,-6.4507,-6.4535,-6.4484,-6.4663,-6.4625,-6.4546,-6.4423,-6.463,-6.4707,-6.4738,-6.4314,-6.431,-6.4307,-6.4304,0,0,-6.4522,-6.4502,-6.4534,-6.4542,-6.4538,-6.4588,-6.4677,-6.4716,-6.4753,-6.4769,-6.4842,-6.492,-6.4847,-6.4865,-6.4814,-6.4886,-6.5081,-6.4797,-6.4796,-6.4851,-6.5279,-6.534,-6.5378,-6.5032,-6.5037,-6.5042,-6.5279,0,-6.4755,-6.4904,-6.4842,-6.4998,-6.506,-6.4954,-6.5031,-6.5038,-6.5014,-6.5063,-6.5036,-6.5094,-6.4992,-6.5002,-6.5068,-6.5043,-6.5166,-6.5025,-6.51,-6.5104,-6.5103,-6.5418,-6.5482,-6.5706,-6.5308,-6.5313,-6.5317,0,-6.5046,-6.5075,-6.5237,-6.5223,-6.5246,-6.5317,-6.5349,-6.5397,-6.5403,-6.538,-6.5402,-6.5336,-6.5423,-6.5301,-6.5421,-6.5326,-6.5353,-6.5346,-6.5353,-6.5358,-6.5224,-6.5433,-6.5776,-6.581,-6.5364,-6.536,-6.5356,0,-6.5285,-6.5364,-6.5471,-6.5482,-6.5468,-6.552,-6.5517,-6.5516,-6.5544,-6.5572,-6.559,-6.5629,-6.565,-6.5682,-6.5628,-6.5544,-6.5757,-6.563,-6.5742,-6.5743,-6.5791,-6.5789,-6.6145,-6.5808,-6.5807,-6.5807,-6.5806,0,-6.5552,-6.5656,-6.5579,-6.5645,-6.5759,-6.5687,-6.5802,-6.5787,-6.5787,-6.5849,-6.576,-6.5821,-6.5745,-6.5799,-6.5758,-6.5865,-6.5875,-6.586,-6.5848,-6.5869,-6.5871,-6.5886,-6.5869,-6.5816,-6.5814,-6.5812,-6.581,0,-6.5838,-6.5791,-6.5901,-6.5879,-6.5876,-6.5961,-6.5942,-6.6004,-6.5974,-6.6054,-6.6069,-6.6022,-6.6081,-6.6031,-6.6088,-6.606,-6.6202,-6.6167,-6.62,-6.6191,-6.6306,-6.6296,-6.6684,-6.6732,-6.6364,-6.6367,-6.637,0,-6.6012,-6.6089,-6.6076,-6.6111,-6.6114,-6.6171,-6.62,-6.6133,-6.6166,-6.6179,-6.624,-6.6291,-6.6328,-6.6427,-6.6399,-6.6443,-6.6409,-6.6542,-6.6415,-6.6434,-6.6413,-6.6409,-6.6417,-6.6568,-6.6573,-6.6576,-6.6579,0,-6.6326,-6.6299,-6.6343,-6.638,-6.6417,-6.6443,-6.6461,-6.6496,-6.6427,-6.6469,-6.6528,-6.6558,-6.6616,-6.6669,-6.6703,-6.67,-6.663,-6.6619,-6.6648,-6.667,-6.6686,-6.668,-6.6271,-6.6611,-6.6608,-6.6605,-6.6604,-6.6602,-6.6562,-6.6626,-6.6627,-6.668,-6.6687,-6.6707,-6.6764,-6.6741,-6.6789,-6.6831,-6.6789,-6.6861,-6.6866,-6.6905,-6.6911,-6.6967,-6.6912,-6.6953,-6.6963,-6.6975,-6.6992,-6.6677,-6.6973,-6.6972,-6.6971,-6.6971,-6.697,0,-6.6872,-6.6867,-6.6917,-6.6946,-6.6988,-6.6917,-6.6935,-6.6975,-6.7039,-6.705,-6.7088,-6.7157,-6.7208,-6.7185,-6.723,-6.7279,-6.7248,-6.7294,-6.729,-6.7291,-6.7038,-6.701,-6.7318,-6.7318,-6.7318,-6.7318,-6.7318,-6.7318,-6.7038,-6.7144,-6.7117,-6.7226,-6.7221,-6.729,-6.7307,-6.7326,-6.7334,-6.7414,-6.7456,-6.744,-6.7438,-6.7482,-6.7526,-6.7518,-6.7539,-6.7597,-6.7578,-6.7342,-6.7308,-6.7275,-6.7248,-6.7602,-6.7602,-6.7825,-6.7827,-6.7828]},{"header":{"parameterUnit":"m.s-1","parameterCategory":1,"la1":30.2991,"la2":30.254,"lo1":-89.0895,"lo2":-89.0444,"dy":0.0017,"dx":0.0017,"nx":28,"ny":28,"refTime":"2024-10-19T03:00:00:Z","depth":0,"parameterNumber":3,"parameterNumberName":"V-component_of_WINDS"},"data":[0,0,0,0,0,0,0,0,0,0,0,0,0,0,0,0,0,0,0,0,0,0,0,0,0,0,0,0,0,0,0,0,0,0,0,0,0,0,0,0,0,0,0,0,0,0,0,0,0,0,0,0,0,0,0,0,0,0,-0.8558,-0.8558,0,-0.8547,-0.8547,-0.8547,-0.8493,-0.8491,-0.849,-0.8489,-0.848,-0.8481,-0.8482,0,0,0,0,0,0,0,0,0,0,0,0,0,-0.8534,-0.8535,-0.8558,-0.8558,-0.8558,-0.8547,-0.8547,-0.8547,-0.8493,-0.8491,-0.849,-0.8488,-0.848,-0.8481,-0.8482,0,0,0,0,0,0,0,0,0,0,0,0,0,-0.8536,-0.8535,-0.8558,-0.853,-0.8527,-0.8547,-0.8547,-0.8546,-0.8493,-0.8491,-0.8489,-0.8488,-0.848,-0.8481,-0.8482,-0.853,0,0,-0.8487,-0.8487,0,0,0,0,0,0,0,0,-0.8536,-0.8537,-0.8534,-0.8532,-0.8529,-0.8519,-0.8535,-0.8541,-0.8494,-0.8506,-0.8489,-0.8487,-0.8495,-0.8495,-0.8497,-0.8529,-0.8529,-0.8487,-0.8488,-0.8488,-0.8489,0,0,0,0,0,0,0,-0.8536,-0.8537,-0.8554,-0.8534,-0.8531,-0.8518,-0.8516,-0.8536,-0.8512,-0.8505,-0.8501,-0.85,-0.8493,-0.8496,-0.8497,-0.8529,-0.8487,-0.8488,-0.8489,-0.849,-0.8598,-0.86,0,0,0,0,0,0,-0.854,-0.8538,-0.8554,-0.8553,-0.8528,-0.852,-0.8518,-0.8524,-0.8511,-0.8507,-0.8502,-0.8498,-0.8494,-0.8495,-0.8496,-0.855,-0.8488,-0.849,-0.8491,-0.8596,-0.8598,-0.8601,0,0,0,0,0,0,-0.8539,-0.8542,-0.8554,-0.8544,-0.8545,-0.8522,-0.853,-0.8525,-0.8528,-0.8509,-0.8504,-0.8509,-0.8493,-0.8494,-0.8521,-0.8549,-0.849,-0.8492,-0.8594,-0.8597,-0.8599,-0.866,0,0,0,0,0,0,-0.8539,-0.8542,-0.856,-0.8545,-0.8546,-0.858,-0.8532,-0.8526,-0.853,-0.8525,-0.8515,-0.8511,-0.8492,-0.8519,-0.8523,-0.855,-0.8493,-0.8591,-0.8595,-0.8598,-0.8655,-0.8664,-0.8672,0,0,0,0,0,-0.8538,-0.8578,-0.8561,-0.8563,-0.8567,-0.8582,-0.8582,-0.8558,-0.8532,-0.855,-0.8538,-0.8511,-0.8545,-0.8523,-0.8526,-0.8554,-0.8589,-0.8594,-0.8598,-0.8651,-0.8663,-0.8672,0,0,0,0,0,0,-0.8598,-0.8576,-0.8556,-0.8592,-0.8589,-0.8572,-0.8594,-0.8571,-0.8576,-0.857,-0.8541,-0.8539,-0.8571,-0.8565,-0.854,-0.8599,-0.8563,-0.8568,-0.8602,-0.8612,-0.8621,-0.8622,-0.8494,0,0,0,0,0,-0.8615,-0.8628,-0.8608,-0.8641,-0.864,-0.8618,-0.8623,-0.8604,-0.86,-0.8599,-0.8589,-0.8586,-0.8596,-0.8604,-0.8612,-0.8653,-0.865,-0.8674,-0.8683,-0.869,-0.8696,-0.8717,-0.8727,-0.8615,-0.8615,-0.8615,0,0,-0.8651,-0.864,-0.865,-0.8653,-0.8648,-0.8663,-0.8617,-0.8634,-0.8645,-0.8602,-0.8627,-0.8619,-0.8614,-0.8649,-0.8663,-0.8645,-0.8725,-0.8696,-0.8701,-0.8703,-0.8722,-0.8733,-0.8742,-0.8618,-0.8618,-0.8617,0,0,-0.8724,-0.8717,-0.8744,-0.8739,-0.8732,-0.8716,-0.8723,-0.8709,-0.8702,-0.8726,-0.8694,-0.8706,-0.8724,-0.8721,-0.8723,-0.8792,-0.8768,-0.8796,-0.8841,-0.8862,-0.8871,-0.8879,-0.8904,-0.8914,-0.8801,-0.8801,-0.8801,0,-0.877,-0.879,-0.8761,-0.878,-0.8782,-0.8741,-0.8769,-0.8766,-0.8763,-0.8765,-0.8744,-0.8764,-0.8759,-0.8792,-0.8808,-0.881,-0.8817,-0.8798,-0.8872,-0.8879,-0.8886,-0.891,-0.892,-0.8804,-0.8804,-0.8804,-0.8803,0,-0.8847,-0.8861,-0.8884,-0.888,-0.8884,-0.8907,-0.8882,-0.889,-0.887,-0.8856,-0.8881,-0.8872,-0.8877,-0.8883,-0.8865,-0.8914,-0.8902,-0.8877,-0.884,-0.8901,-0.8923,-0.8932,-0.8809,-0.8808,-0.8807,-0.8806,0,0,-0.896,-0.8938,-0.8947,-0.8944,-0.8932,-0.8942,-0.8963,-0.8967,-0.8974,-0.8972,-0.899,-0.9005,-0.898,-0.8982,-0.8962,-0.898,-0.9036,-0.8953,-0.8952,-0.8969,-0.909,-0.911,-0.9121,-0.9019,-0.9021,-0.9022,-0.9091,0,-0.9031,-0.9065,-0.9038,-0.9077,-0.909,-0.905,-0.9068,-0.9063,-0.905,-0.9059,-0.9045,-0.9056,-0.9023,-0.9024,-0.904,-0.9026,-0.9061,-0.9021,-0.9036,-0.9037,-0.9041,-0.9133,-0.9155,-0.922,-0.9099,-0.91,-0.9101,0,-0.9118,-0.9119,-0.9159,-0.9142,-0.9147,-0.9163,-0.9164,-0.9173,-0.9166,-0.9155,-0.9156,-0.9131,-0.915,-0.9113,-0.9139,-0.9113,-0.9117,-0.9111,-0.9113,-0.9115,-0.9075,-0.9139,-0.924,-0.925,-0.9115,-0.9114,-0.9113,0,-0.9198,-0.9208,-0.9233,-0.9232,-0.9213,-0.9226,-0.9219,-0.921,-0.9213,-0.9214,-0.9216,-0.9219,-0.9222,-0.9225,-0.9202,-0.9176,-0.9231,-0.9192,-0.9224,-0.9225,-0.9239,-0.9239,-0.9344,-0.924,-0.9239,-0.9239,-0.9239,0,-0.928,-0.9307,-0.9268,-0.9284,-0.9312,-0.9281,-0.9309,-0.9298,-0.929,-0.9303,-0.9269,-0.9282,-0.9249,-0.9259,-0.9241,-0.9266,-0.9267,-0.926,-0.9255,-0.9264,-0.9265,-0.9268,-0.9263,-0.9242,-0.9241,-0.9241,-0.924,0,-0.9375,-0.935,-0.9375,-0.9355,-0.935,-0.9372,-0.9354,-0.9368,-0.9352,-0.9369,-0.9371,-0.9346,-0.9356,-0.9332,-0.9338,-0.9326,-0.9362,-0.9349,-0.9365,-0.9361,-0.9395,-0.9393,-0.9507,-0.9521,-0.9406,-0.9407,-0.9408,0,-0.943,-0.9449,-0.943,-0.9436,-0.943,-0.944,-0.9443,-0.9412,-0.9416,-0.9408,-0.9423,-0.9429,-0.9433,-0.945,-0.9433,-0.9438,-0.9426,-0.9465,-0.9426,-0.9434,-0.9427,-0.9427,-0.9429,-0.9474,-0.9475,-0.9477,-0.9477,0,-0.9531,-0.9517,-0.9522,-0.9523,-0.9527,-0.9526,-0.9523,-0.9529,-0.9496,-0.9503,-0.9511,-0.9514,-0.9519,-0.9526,-0.9526,-0.952,-0.9494,-0.9489,-0.9497,-0.9507,-0.9516,-0.9513,-0.9388,-0.9488,-0.9486,-0.9486,-0.9485,-0.9485,-0.9609,-0.9623,-0.9612,-0.9618,-0.9612,-0.9609,-0.9621,-0.9605,-0.9611,-0.9612,-0.9593,-0.9606,-0.9597,-0.9594,-0.959,-0.96,-0.9582,-0.9593,-0.9596,-0.96,-0.9606,-0.9513,-0.9599,-0.9599,-0.9599,-0.9599,-0.9598,0,-0.9709,-0.9698,-0.9704,-0.97,-0.9705,-0.9677,-0.9672,-0.9678,-0.9689,-0.9682,-0.9685,-0.9695,-0.9701,-0.9683,-0.9687,-0.9698,-0.9686,-0.97,-0.97,-0.9699,-0.9621,-0.9615,-0.971,-0.971,-0.971,-0.9709,-0.9709,-0.9709,-0.9761,-0.9785,-0.9769,-0.9789,-0.9778,-0.979,-0.9789,-0.9786,-0.978,-0.9792,-0.9796,-0.9784,-0.9773,-0.9775,-0.9779,-0.9774,-0.9777,-0.9796,-0.9787,-0.9715,-0.9704,-0.9694,-0.9688,-0.9796,-0.9796,-0.9863,-0.9864,-0.9864]}]]